Regional Weather Roundup
Issued by NWS

Home | Current Version | Previous Version | Text Only | Print | Product List | Glossary Off
Versions: 1 2 3 4 5 6 7 8 9 10 11 12 13 14 15 16 17 18 19 20 21 22 23 24 25 26 27 28 29 30 31 32 33 34 35 36 37 38 39 40 41 42 43 44 45 46 47 48 49 50

000
ASUS45 KTFX 200110
RWRMT
MONTANA REGIONAL WEATHER ROUNDUP
NATIONAL WEATHER SERVICE GREAT FALLS MT
700 PM MDT SAT MAY 19 2018

NOTE: "FAIR" INDICATES FEW OR NO CLOUDS BELOW 12000 FEET WITH NO
SIGNIFICANT WEATHER AND/OR OBSTRUCTIONS TO VISIBILITY.

MTZ001>007-043-200200-
WEST OF THE DIVIDE

CITY           SKY/WX    TMP DP  RH WIND       PRES   REMARKS
KALISPELL      CLOUDY    63  42  46 SE6       29.99F
MISSOULA       FAIR      65  43  44 SE13      29.98F
BUTTE          FAIR      55  39  54 SE10      30.08F
MULLAN PASS    FAIR      50  39  66 CALM      30.05S
ANACONDA         N/A     59  43  55 E7        30.05F
DEER LODGE       N/A     57  45  62 N7        30.07F
HAMILTON         N/A     64  41  42 MISG      29.98F
PLAINS           N/A     67  45  45 CALM      29.99F
RONAN            N/A     64  45  48 N8        30.00F
$$

MTZ008-052>055-200200-
SOUTHWEST MONTANA

CITY           SKY/WX    TMP DP  RH WIND       PRES   REMARKS
BOZEMAN        FAIR      53  41  63 SE16      30.10F
DILLON         FAIR      56  41  57 NE15      30.05S
ENNIS          PTSUNNY   54  41  62 N17       30.12S
W YELLOWSTONE  PTSUNNY   52  43  71 NE10      30.08F
$$

MTZ009-010-012-014-046-048-049-054-200200-
EAST SLOPES AND CENTRAL MONTANA

CITY           SKY/WX    TMP DP  RH WIND       PRES   REMARKS
CUT BANK       CLOUDY    51  42  71 SE9       30.11F
GREAT FALLS    CLOUDY    55  42  61 CALM      30.12F
MALMSTROM AFB  PTSUNNY   53  43  69 W3        30.11F
HELENA         PTSUNNY   57  43  59 CALM      30.10F
AUGUSTA        CLOUDY    49  40  72 CALM      30.12F
BOWMANS CRNR   CLOUDY    48  41  76 N5        30.10F
CHOTEAU          N/A     52  43  71 CALM      30.13F
POWER          PTSUNNY   51  41  68 CALM      30.11F
RAYNESFORD     CLOUDY    52  42  67 NE7       30.11F
WHITE SULPHUR    N/A     48  39  71 S10G18    30.12F
$$

MTZ011-013-016-021-045-047-050-051-200200-
NORTH CENTRAL MONTANA

CITY           SKY/WX    TMP DP  RH WIND       PRES   REMARKS
HAVRE          FAIR      57  40  52 SE13      30.14F
LEWISTOWN      CLOUDY    49  40  71 SE16      30.14F
N BAR RANCH    CLOUDY    46  41  81 S9        30.21F
CHINOOK          N/A     59  39  47 MISG      30.16F
DENTON         CLOUDY    52  42  68 S10       30.12F
JUDITH GAP     CLOUDY    44  40  84 S16       30.17F
ROY            PTSUNNY   50  40  68 SE20      30.16F
STANFORD       FAIR      48  40  74 SE25      30.12F
WINIFRED       CLOUDY    50  42  73 SE13      30.15F
$$

MTZ017>020-022>027-061-062-200200-
NORTHEAST MONTANA

CITY           SKY/WX    TMP DP  RH WIND       PRES   REMARKS
GLASGOW        FAIR      61  32  33 SE14      30.21F
GLENDIVE       FAIR      60  33  36 E9        30.23F
JORDAN           N/A     59  37  44 SE16      30.20F
MALTA          MOSUNNY   61  36  39 SE12      30.17S
SIDNEY         FAIR      61  37  41 S5        30.23F
WOLF POINT     FAIR      61  35  37 SE3       30.23F
PLENTYWOOD       N/A     66  25  20 CALM      30.22F
POPLAR           N/A     61  36  39 S7        30.24S
SCOBEY           N/A     62  26  25 S2        30.20F
$$

MTZ028>42-056>058-200200-
SOUTHCENTRAL AND SOUTHEAST MONTANA

CITY           SKY/WX    TMP DP  RH WIND       PRES   REMARKS
BAKER          FAIR      58  32  37 SE10      30.23F
BILLINGS       PTSUNNY   54  43  66 E6        30.16F
LIVINGSTON     CLOUDY    46  41  82 E15       30.15S
MILES CITY     FAIR      61  40  45 SE13      30.20F
BIG TIMBER     CLOUDY    45  43  93 NE7       30.19S
EKALAKA          N/A     55  31  40 E7        30.19F
FORSYTH          N/A     59  37  44 E10       30.19F
HARLOWTON      CLOUDY    45  40  85 SE8       30.19S
LAUREL           N/A     54  45  71 SE7       30.17F
$$

REGIONAL REPORTS...DAKOTAS

CITY           SKY/WX    TMP DP  RH WIND       PRES   REMARKS
WILLISTON      FAIR      64  27  24 S7        30.23S
MINOT          FAIR      66  29  24 CALM      30.20S
DICKINSON      FAIR      60  31  33 E8        30.22S
BEACH          FAIR      57  27  30 E8        30.27S
CROSBY         FAIR      66  21  18 SE6       30.22S
TIOGA          FAIR      64  23  20 CALM      30.24S
WATFORD CITY   FAIR      64  23  20 VRB3      30.23S
BISMARCK       FAIR      61  36  39 E10       30.23R
GRAND FORKS    FAIR      63  37  38 N10       30.16R
FARGO          FAIR      64  31  28 NE15      30.15R
BUFFALO SD       N/A     58  33  39 E9        30.17S
RAPID CITY     PTSUNNY   52  39  61 N7        30.22F
$$

REGIONAL REPORTS...WYOMING/IDAHO/WASHINGTON

CITY           SKY/WX    TMP DP  RH WIND       PRES   REMARKS
GILLETTE       FAIR      55  36  48 E8        30.19F
SHERIDAN       PTSUNNY   55  41  59 SE7       30.18F
BUFFALO WY     CLOUDY    50  39  66 SE3       30.21F
CODY           CLOUDY    51  39  63 N7        30.17F
YELLOWSTONE LA   N/A     46  37  71 VRB5      30.18R
IDAHO FALLS    FAIR      66  42  41 S3        29.99F
SALMON         FAIR      67  44  43 W3        29.93F
BOISE          FAIR      73  44  35 SW8       29.86S
SPOKANE        FAIR      69  44  40 NW6       29.93F
$$

REGIONAL REPORTS...ALBERTA

CITY           SKY/WX    TMP DP  RH WIND       PRES   REMARKS
CALGARY        MOSUNNY   57  39  51 S24G32    30.05S
CARDSTON         N/A     54  41  62 SE12G17     N/A
EDMONTON       SUNNY     72  34  25 S14G21    29.96F
FORT MCMURRAY  SUNNY     75  30  19 SW5       29.95F
HIGH LEVEL     MOSUNNY   79  36  21 SE6       29.85F
LETHBRIDGE     PTSUNNY   55  41  58 SE17      30.09F
LLOYDMINSTER   PTSUNNY   68  25  19 S15       30.07F
MEDICINE HAT   MOSUNNY   64  37  36 S14       30.11F
MILK RIVER       N/A     54  41  62 S15         N/A
PEACE RIVER    SUNNY     75  30  19 CALM      29.88F
PINCHER CREEK    N/A     52  43  71 E6        30.08F
WATERTON GATE    N/A     54  39  58 E7          N/A
$$

REGIONAL REPORTS...SASKATCHEWAN

CITY           SKY/WX    TMP DP  RH WIND       PRES   REMARKS
CORONACH         N/A     63  25  23 S10G17      N/A
ESTEVAN        PTSUNNY   68  23  18 SW7G20    30.20S
MOOSE JAW        N/A     68  19  15 S7          N/A
PRINCE ALBERT  PTSUNNY   72  30  21 SW12G18   30.12F
REGINA         SUNNY     68  23  18 S5        30.18F
ROCKGLEN         N/A     59  28  31 S12         N/A
SASKATOON      MOSUNNY   70  25  18 S10G20    30.15F
SWIFT CURRENT  SUNNY     64  25  22 S14G22    30.16F
VAL MARIE        N/A     61  25  25 S16         N/A
$$



USA.gov is the U.S. government's official web portal to all federal, state and local government web resources and services.